Regional Weather Roundup
Issued by NWS Spokane, WA

Home | Current Version | Previous Version | Text Only | Print | Product List | Glossary On
Versions: 1 2 3 4 5 6 7 8 9 10 11 12 13 14 15 16 17 18 19 20 21 22 23 24 25 26 27 28 29 30 31 32 33 34 35 36 37 38 39 40 41 42 43 44 45 46 47 48 49 50
000
NZUS01 KOTX 301010
RWROTX
EASTERN WASHINGTON/NORTHERN IDAHO ROUNDUP
NATIONAL WEATHER SERVICE, SPOKANE WA
300 AM PDT SUN AUG 30 2015

Note: "fair" indicated few or no clouds below 12,000 feet with no
significant weather and/or obstructions to visibility.

...NORTHEAST WASHINGTON AND NORTHERN IDAHO PANHANDLE...

CITY           SKY/WX    TMP DP  RH WIND       PRES   REMARKS
SPOKANE INTL   MOCLDY    56  44  64 SE8       29.84S
SPOKANE DOWNTO FAIR      58  45  62 CALM      29.85S
COEUR D ALENE  FAIR      59  45  58 S9        29.85S
DEER PARK      FAIR      56  44  64 S13       29.83F
SANDPOINT      FAIR      46  46 100 CALM      29.84R
BONNERS FERRY  FAIR      57  48  72 S7        29.83S

...SOUTHEAST WASHINGTON AND SOUTHERN IDAHO PANHANDLE...

CITY           SKY/WX    TMP DP  RH WIND       PRES   REMARKS
WALLA WALLA    FAIR      62  43  49 E8        29.82F
PULLMAN/MOSCOW FAIR      54  48  80 CALM      29.90R
LOWELL           N/A     59  57  93 CALM      29.90R

...COLUMBIA BASIN...

CITY           SKY/WX    TMP DP  RH WIND       PRES   REMARKS
EPHRATA        FAIR      56  48  74 SW5       29.76R
MOSES LAKE     FAIR      63  48  58 S20       29.76F
TRI CITIES     CLOUDY    62  50  64 SW7       29.81S
HERMISTON      FAIR      54  45  71 E3        29.81F
PENDLETON      MOCLDY    53  42  66 SE7       29.84R

...EAST SLOPES CASCADES...

CITY           SKY/WX    TMP DP  RH WIND       PRES   REMARKS
THE DALLES     MOCLDY    62  54  74 E5        29.80F
YAKIMA         FAIR      65  46  50 S17G28    29.77S
ELLENSBURG     MOCLDY    58  47  66 E8        29.76F
WENATCHEE      FAIR      61  48  62 CALM      29.72F
OMAK           LGT RAIN  62  47  57 S17       29.72S

...SOUTHERN BRITISH COLUMBIA...

CITY           SKY/WX    TMP DP  RH WIND       PRES   REMARKS
PENTICTON      LGT RAIN  63  46  55 N7        29.69R

...WESTERN MONTANA...

CITY           SKY/WX    TMP DP  RH WIND       PRES   REMARKS
MISSOULA       FAIR      59  51  75 NW9       29.89R

...NEIGHBORING CITIES...

CITY           SKY/WX    TMP DP  RH WIND       PRES   REMARKS
SEATTLE        MOCLDY    56  54  93 S7        29.79R
CALGARY        PTCLDY    54  37  54 S6        29.64R



USA.gov is the U.S. government's official web portal to all federal, state and local government web resources and services.